This is the latest recevied weather packets stored in our database for station/object W0AKO. If no packets are shown the sender has not sent any weather packets the latest 1 day(s).
| Time | Temp. | Humidity | Pressure | Rain* | Wind** | Luminosity | Snow |
|---|---|---|---|---|---|---|---|
| 1778029040 | 22.78° C | 10% | 1009.9 hPa | 0 mm | 5.81 m/s, 218° | 42 W/m² | - |
| 1778028736 | 22.78° C | 10% | 1009.7 hPa | 0 mm | 5.81 m/s, 255° | 149 W/m² | - |
| 1778028432 | 22.78° C | 10% | 1009.9 hPa | 0 mm | 4.02 m/s, 279° | 163 W/m² | - |
| 1778028130 | 22.22° C | 10% | 1009.9 hPa | 0 mm | 3.13 m/s, 235° | 195 W/m² | - |
| 1778027826 | 22.22° C | 10% | 1009.7 hPa | 0 mm | 4.02 m/s, 223° | 164 W/m² | - |
| 1778027523 | 22.78° C | 10% | 1009.6 hPa | 0 mm | 4.92 m/s, 232° | 139 W/m² | - |
| 1778027218 | 22.78° C | 10% | 1009.6 hPa | 0 mm | 6.26 m/s, 285° | 180 W/m² | - |
| 1778026915 | 22.78° C | 10% | 1009.6 hPa | 0 mm | 4.92 m/s, 278° | 205 W/m² | - |
| 1778026610 | 22.78° C | 10% | 1009.5 hPa | 0 mm | 4.47 m/s, 220° | 239 W/m² | - |
| 1778026308 | 22.78° C | 10% | 1009.5 hPa | 0 mm | 6.26 m/s, 230° | 256 W/m² | - |
| 1778026005 | 23.33° C | 10% | 1009.5 hPa | 0 mm | 7.6 m/s, 252° | 257 W/m² | - |
| 1778025703 | 22.78° C | 10% | 1009.2 hPa | 0 mm | 4.92 m/s, 246° | 258 W/m² | - |
| 1778025400 | 22.78° C | 10% | 1009.5 hPa | 0 mm | 4.92 m/s, 233° | 253 W/m² | - |
| 1778025098 | 23.33° C | 10% | 1009.4 hPa | 0 mm | 4.92 m/s, 195° | 280 W/m² | - |
| 1778024794 | 22.78° C | 10% | 1009.4 hPa | 0 mm | 5.36 m/s, 268° | 287 W/m² | - |
| 1778024491 | 22.78° C | 10% | 1009.6 hPa | 0 mm | 4.92 m/s, 235° | 324 W/m² | - |
| 1778024188 | 22.78° C | 10% | 1009.6 hPa | 0 mm | 4.47 m/s, 307° | 368 W/m² | - |
| 1778023886 | 22.78° C | 10% | 1009.5 hPa | 0 mm | 1.79 m/s, 261° | 379 W/m² | - |
| 1778023583 | 23.33° C | 10% | 1009.7 hPa | 0 mm | 4.47 m/s, 275° | 381 W/m² | - |
| 1778023281 | 23.33° C | 10% | 1009.4 hPa | 0 mm | 5.81 m/s, 225° | 396 W/m² | - |
| 1778022977 | 22.78° C | 10% | 1009.5 hPa | 0 mm | 4.47 m/s, 247° | 426 W/m² | - |
| 1778022676 | 23.33° C | 10% | 1009.5 hPa | 0 mm | 3.13 m/s, 237° | 424 W/m² | - |
| 1778022374 | 23.33° C | 10% | 1009.6 hPa | 0 mm | 4.92 m/s, 258° | 443 W/m² | - |
| 1778022070 | 23.33° C | 10% | 1009.6 hPa | 0 mm | 3.13 m/s, 273° | 496 W/m² | - |
| 1778021766 | 23.33° C | 10% | 1009.8 hPa | 0 mm | 3.13 m/s, 235° | 521 W/m² | - |
* Rain latest hour (hover to see other rain measurements)
** Current wind speed in m/s (hover to see current wind gust speed)